Location: Caucaguita
(10.3578°N, 66.8025°W)
Time: 03:45:51
(UTC+00:00)

Ariane H10-3 - Pass Details

Date: 18 November 2025
Orbit: 365 x 23103 km, 7.8° (Epoch: 09 December)

Event Time Altitude Azimuth Distance (km) Brightness Sun altitude
Rises 23:12:15 0° 264° (W) 2,185 7.0 -17.4°
Reaches altitude 10° 23:13:52 10° 257° (WSW) 1,359 5.6 -17.8°
Maximum altitude 23:16:16 50° 178° (S) 607 2.6 -18.3°
Enters shadow 23:17:43 30° 119° (ESE) 1,055 3.4 -18.7°
